Simultaneous Nadir Overpasses (SNOs) Predictions

Prediction of SNOs between GOES-17 and METOP-B Satellite Orbit:

Table of predicted SNOs for the next 14.0 days since TLE Epoch: 3/20/2021
Index Date Time (GOES-17) GOES-17 Lat,Lon METOP-B Lat,Lon Distance(km) Time Diff (sec)
1 03/20/2021 18:52:37 0.04,-137.20 0.69,-140.16 337.38 80
2 03/21/2021 18:29:17 0.03,-137.19 -0.39,-135.16 230.95 80
3 03/23/2021 06:50:56 -0.03,-137.17 -0.62,-139.75 294.91 80
4 03/24/2021 06:27:36 -0.03,-137.16 0.52,-134.76 272.94 80
5 03/25/2021 18:46:28 0.03,-137.14 0.51,-139.32 248.39 80
6 03/26/2021 18:28:27 0.03,-137.13 -0.57,-134.32 319.25 80
7 03/28/2021 06:47:27 -0.03,-137.10 -0.44,-138.92 207.57 80
8 03/29/2021 06:24:07 -0.03,-137.08 0.70,-133.93 359.70 80
9 03/30/2021 18:42:58 0.03,-137.05 0.33,-138.49 162.76 80
10 03/31/2021 18:24:58 0.03,-137.03 -0.75,-133.48 404.05 80
11 04/02/2021 06:43:57 -0.03,-136.99 -0.25,-138.08 124.22 80
